Theta_e
355 357 357 357 356 356 354 353 355 356 356 353 355 353 352 351 353 354 354 354 353 353 352 352 350 350 350 347 350 351 349 349 351 351 351 352 355 359 362 361 359 359 358 359 359 359 358 357 357 357 357 356 356 356 356 356 356 356 355 354 354 353 353 354 354 353 353 353 352 352 352 352 351 351 351 351 351 352 352 352 352 352 353 353 353
355 356 356 356 355 356 356 355 355 355 354 351 354 353 351 351 353 353 354 353 351 351 359 350 348 350 348 344 348 349 348 349 351 350 352 354 355 359 362 361 360 360 359 358 359 359 360 358 358 357 357 357 356 355 355 355 355 355 355 354 354 353 354 353 353 353 353 353 351 351 352 351 352 351 352 352 352 352 353 353 354 354 354 354 354
353 356 355 355 355 357 355 355 355 355 354 352 354 352 352 351 352 353 354 352 352 353 356 349 346 347 352 345 345 347 348 350 351 351 353 354 355 356 359 362 360 360 359 359 358 358 359 359 359 359 358 357 357 356 355 356 355 355 355 354 354 354 354 354 354 354 354 354 353 353 352 351 351 351 352 353 353 354 353 353 353 354 354 354 354
354 357 356 354 355 355 355 356 354 354 355 353 354 355 354 354 356 356 356 353 352 351 352 351 350 349 347 346 343 346 348 350 351 352 353 354 355 356 357 359 361 360 360 359 358 358 358 357 357 357 358 358 357 356 356 356 355 355 355 355 354 354 354 354 355 354 354 354 354 354 353 353 352 353 353 353 354 354 354 354 354 355 355 355 355
355 358 362 354 355 354 354 357 356 355 356 355 356 354 354 354 355 357 352 348 350 348 353 351 349 348 347 344 342 346 348 350 351 352 354 355 355 356 356 359 357 361 359 358 358 358 357 358 358 357 357 357 358 357 357 356 356 355 355 355 354 354 354 354 355 355 354 354 355 354 354 354 353 354 354 354 354 354 354 354 355 355 355 355 355
356 357 358 354 354 354 354 354 356 356 355 355 352 351 350 351 352 354 357 350 347 349 350 348 347 347 346 343 342 346 348 348 350 352 354 355 356 356 356 356 355 355 357 359 358 358 358 359 358 357 358 357 357 357 357 357 356 356 355 355 354 355 355 355 355 355 355 355 355 355 354 354 354 354 355 355 355 354 354 355 354 354 352 352 352
357 357 357 355 355 354 355 356 357 355 353 353 351 352 351 352 356 351 351 350 348 350 349 346 345 342 345 344 342 346 348 348 350 352 353 354 356 356 356 356 355 355 356 354 359 360 359 358 358 358 358 358 357 358 357 357 357 356 355 355 355 355 355 355 355 355 355 355 355 354 355 354 354 354 353 353 353 354 354 353 353 351 352 351 351
358 357 356 356 356 355 356 359 359 355 354 355 354 353 354 354 357 352 349 350 351 347 347 347 343 345 345 341 344 348 346 347 349 350 352 354 355 355 355 355 355 353 358 352 353 357 359 358 358 358 358 358 358 357 358 357 357 357 356 356 355 356 355 356 356 356 356 354 354 354 353 353 354 354 352 352 353 352 351 352 352 351 352 352 352
359 357 356 356 356 357 358 360 361 359 359 359 357 357 354 356 353 356 349 348 351 350 347 345 341 343 338 339 344 347 346 347 348 349 352 352 353 355 354 354 355 360 354 352 352 352 358 360 358 358 358 358 358 357 357 357 357 357 357 357 356 356 356 356 356 356 355 355 355 355 353 354 353 354 353 353 352 352 352 352 351 352 352 352 352
360 358 355 356 357 358 357 361 361 359 357 356 355 358 354 354 351 353 356 352 349 346 343 343 343 342 338 339 343 343 344 345 347 355 349 350 352 353 353 354 356 355 354 353 353 352 353 357 358 358 358 358 359 358 357 357 357 357 357 357 357 357 356 356 355 355 355 353 354 353 354 353 353 353 353 354 353 353 353 353 351 352 352 352 352
360 359 356 358 357 358 359 360 360 357 357 355 354 355 354 351 351 351 355 353 350 347 343 341 341 339 336 337 340 339 340 343 349 347 347 350 352 355 353 353 355 354 353 353 352 352 351 351 352 352 354 358 358 358 357 357 356 357 357 357 356 355 356 356 356 355 354 353 353 354 352 353 353 353 352 352 353 353 353 353 353 353 353 352 352
359 359 358 357 355 356 360 360 359 358 355 354 353 352 350 349 350 351 349 352 353 347 341 341 339 339 342 335 338 338 339 346 344 344 347 348 351 353 351 352 353 353 353 353 353 353 352 350 355 352 352 355 357 357 358 358 357 355 357 355 355 355 355 356 355 353 353 354 353 353 352 352 353 352 352 352 353 353 352 352 352 353 353 353 353
361 358 357 361 356 356 360 358 358 356 355 354 354 354 352 351 353 355 350 347 345 338 338 336 332 329 330 332 336 341 347 343 339 340 343 346 349 348 349 350 349 350 352 353 352 352 352 351 351 350 350 351 354 357 355 354 356 356 356 356 355 355 355 355 354 353 353 353 353 353 352 351 352 352 351 352 352 352 352 352 352 351 351 351 352
361 358 357 358 354 355 358 356 356 355 354 357 353 361 356 352 353 348 351 346 342 338 337 333 330 324 324 326 331 330 343 335 336 337 340 344 346 345 347 348 347 349 351 352 351 351 352 352 352 351 350 351 351 350 352 354 355 356 356 356 356 355 354 355 354 354 354 354 354 353 352 352 352 353 353 352 352 352 350 348 348 349 350 351 351
360 360 357 358 355 354 355 357 354 357 355 352 352 353 352 352 351 347 346 349 348 343 335 331 328 331 329 327 323 320 328 330 334 336 337 341 343 344 347 347 348 348 350 350 350 351 352 352 351 350 350 350 351 351 351 357 353 357 356 356 356 356 354 354 354 353 353 353 354 353 352 352 352 351 351 351 350 347 348 346 346 346 348 348 346
359 360 359 358 357 354 356 357 354 357 355 352 350 350 352 351 350 352 347 343 341 336 344 338 334 329 323 323 321 319 317 321 327 332 335 340 342 343 346 346 346 347 348 348 349 349 350 350 349 349 350 350 351 351 352 349 356 358 357 356 356 355 355 354 354 354 354 352 352 352 351 351 351 350 349 349 347 347 342 343 344 345 344 345 345
359 360 359 357 357 357 357 358 356 357 356 354 352 353 354 354 353 351 347 342 340 334 340 339 335 333 331 325 321 319 318 321 328 328 334 334 339 342 346 344 345 346 347 347 347 349 349 349 348 349 349 349 350 351 351 351 352 356 354 356 356 355 354 354 353 354 352 352 352 351 351 350 349 347 345 345 344 344 344 342 343 344 344 344 345
359 359 360 359 357 359 360 359 358 359 358 356 355 354 355 354 355 352 349 344 341 331 333 345 339 345 336 329 324 321 322 324 323 321 334 333 334 339 343 343 343 346 345 345 346 347 350 349 349 349 350 349 349 349 348 348 352 348 346 351 355 354 355 355 352 352 352 351 351 348 349 348 347 344 344 345 345 343 343 344 344 344 343 345 344
359 359 359 359 358 360 361 361 360 359 361 357 354 355 357 357 356 352 350 351 336 329 332 336 337 340 345 343 345 343 330 324 321 322 321 326 330 332 337 338 340 343 343 343 344 345 347 349 349 349 348 349 347 346 348 349 355 353 357 356 355 354 356 356 354 350 348 347 347 346 346 346 344 343 341 343 346 346 345 345 345 346 346 346 346
359 358 359 359 360 360 360 361 360 360 361 357 356 357 357 357 357 355 351 351 343 331 330 333 332 332 340 336 345 344 337 333 329 325 322 320 322 329 330 334 336 338 342 342 342 343 344 345 346 347 348 347 344 346 347 348 347 349 354 354 355 353 354 352 352 349 347 345 344 346 346 345 344 345 345 346 348 348 348 347 347 347 347 347 347
358 358 358 359 362 360 360 361 361 360 362 358 357 358 357 355 355 353 350 351 347 338 333 333 331 330 332 334 334 334 334 335 332 332 325 321 321 322 323 330 332 332 336 339 340 341 342 342 344 347 348 346 341 344 345 346 346 347 354 355 355 353 352 352 351 349 347 345 345 346 346 346 347 347 347 348 348 349 348 347 347 347 346 346 346
357 358 358 358 361 361 360 361 361 362 362 359 358 358 357 355 355 354 352 349 349 344 335 335 333 332 332 332 332 333 329 329 330 328 328 324 321 322 323 324 324 327 332 335 337 338 339 339 343 346 345 343 339 342 342 343 343 344 350 355 355 354 352 351 352 348 347 346 346 346 347 347 348 348 348 348 348 347 347 347 347 347 347 347 347
356 357 358 358 359 362 361 362 362 363 363 359 358 357 358 357 356 355 354 350 349 348 345 339 337 336 333 331 331 330 327 326 327 329 326 324 323 325 326 325 326 324 328 333 337 337 338 338 341 341 342 340 339 340 340 339 344 345 350 355 355 354 353 352 350 348 350 350 347 347 347 348 347 347 347 346 346 347 347 348 349 349 349 349 349
354 356 356 358 359 361 363 363 362 362 362 361 360 358 359 358 356 354 354 351 350 350 345 340 335 338 333 333 331 334 332 329 331 330 329 326 326 324 325 326 326 325 331 332 336 336 336 337 339 338 339 339 339 339 339 338 339 346 350 354 353 353 353 352 351 351 350 351 349 349 348 348 347 347 347 348 350 352 353 352 350 350 348 348 348
353 354 356 357 358 359 360 361 362 361 362 360 359 359 359 358 357 355 354 351 350 349 346 342 339 339 335 336 331 339 336 335 336 331 331 330 328 324 327 328 323 324 329 331 331 334 335 336 338 337 337 338 339 339 337 336 334 343 350 350 349 349 349 349 348 347 348 347 347 347 346 348 349 350 350 349 350 350 349 349 348 348 348 349 349
353 353 356 357 358 360 360 361 362 362 361 360 359 360 359 357 357 355 355 353 351 349 348 344 341 341 339 338 335 336 338 339 337 335 337 331 328 327 327 330 326 325 328 329 330 330 331 334 336 337 337 337 339 338 336 335 333 343 349 338 343 345 345 345 345 344 344 344 345 346 346 347 349 349 351 350 349 349 350 350 350 350 350 348 348
354 355 356 357 357 359 360 360 361 362 361 360 360 360 359 358 357 356 356 354 352 351 349 346 342 341 339 337 338 336 336 337 336 336 339 333 331 330 328 326 325 325 327 327 328 328 329 332 335 335 337 338 338 338 337 336 338 343 351 339 334 343 343 342 343 342 341 342 343 344 346 348 350 352 352 351 350 350 350 350 350 349 347 347 347
354 355 355 357 356 358 360 360 360 361 361 361 360 359 358 358 356 355 355 357 354 350 350 349 344 341 341 339 337 336 337 337 337 335 335 335 333 332 330 328 324 320 323 324 325 326 329 328 331 334 336 338 338 339 343 342 338 347 351 340 332 336 342 342 342 343 342 341 342 344 345 347 349 351 352 350 349 349 349 348 348 347 348 348 347
355 356 355 356 356 357 358 359 359 360 361 361 360 359 359 358 357 355 354 356 355 351 350 349 347 342 341 340 338 337 336 337 337 335 334 335 335 333 332 329 327 323 320 320 323 324 327 331 328 331 335 337 338 339 341 340 343 346 344 343 333 332 339 341 341 342 343 343 341 342 344 345 347 348 350 350 349 349 348 347 347 346 347 346 345
356 357 356 355 355 360 357 358 359 360 360 361 361 360 359 358 357 356 356 356 355 353 352 351 348 344 341 341 340 338 339 340 339 336 333 334 334 334 334 332 330 327 324 322 322 325 325 329 330 329 333 335 338 339 339 340 346 347 343 345 336 333 338 339 340 341 342 342 342 341 342 344 345 346 347 348 348 348 347 346 346 346 346 345 344
356 356 356 356 355 356 356 357 358 358 360 360 360 360 359 358 357 356 356 355 354 353 352 351 349 346 343 340 340 340 340 340 342 342 337 335 334 333 334 334 331 330 328 325 321 325 329 328 330 333 333 335 338 339 339 339 342 346 343 343 339 340 340 339 340 340 340 341 341 341 341 341 341 342 343 344 345 345 345 345 345 345 344 343 343
356 357 356 356 355 354 356 357 357 357 358 360 360 360 359 358 357 356 356 355 354 353 353 353 351 348 345 342 340 340 340 341 342 342 341 337 338 334 334 334 333 331 331 327 324 325 330 330 330 331 334 336 337 337 337 338 341 349 344 342 341 344 342 338 341 340 339 339 340 340 340 339 338 339 341 342 343 343 344 344 345 343 343 343 343
356 356 356 356 355 355 355 356 356 356 356 357 359 359 359 357 357 357 356 355 353 353 353 352 352 349 346 344 343 341 341 340 340 342 341 339 337 338 336 336 334 334 332 329 326 326 330 332 333 334 334 336 335 337 336 337 337 343 347 340 340 339 341 342 342 342 339 338 338 339 339 338 337 338 339 340 341 342 344 343 342 341 341 343 343
356 356 357 357 356 355 354 355 356 357 357 356 358 359 358 357 357 357 356 355 353 353 353 352 352 351 348 346 344 343 341 340 340 340 341 341 337 337 337 337 335 336 335 333 330 329 328 330 332 334 334 336 333 336 336 335 336 340 341 338 338 338 339 341 341 341 341 340 338 338 338 337 336 336 337 338 339 340 341 341 341 339 340 342 340
356 357 356 356 356 356 355 355 355 356 356 356 357 358 358 357 357 357 357 356 355 353 352 352 352 351 349 347 346 345 344 341 341 341 341 341 340 337 336 338 336 336 337 335 331 329 329 330 331 332 333 334 333 333 335 337 338 339 339 337 337 341 342 341 340 340 340 339 338 337 337 336 335 334 335 335 337 337 338 338 337 337 337 336 334
356 357 357 356 356 355 355 355 355 355 356 356 356 357 358 358 357 357 356 356 356 355 354 353 352 351 350 348 347 346 345 342 341 341 340 341 340 338 336 336 337 336 337 336 334 332 330 329 332 332 333 332 333 333 336 337 337 336 336 337 336 339 340 340 339 338 339 338 337 336 335 335 333 332 332 333 333 333 334 334 334 334 332 333 331
357 357 357 357 356 355 355 354 355 355 355 356 356 356 357 358 358 357 357 356 356 355 355 354 356 352 350 349 348 347 346 344 343 341 341 339 341 339 337 335 336 337 337 337 335 333 331 330 331 333 334 334 334 334 336 335 335 336 335 334 333 334 337 339 339 339 339 336 336 336 334 333 333 332 332 331 331 330 331 332 331 330 330 328 326
354 357 356 356 356 356 355 355 355 355 356 356 356 356 356 357 358 358 357 357 356 356 355 355 355 353 351 350 349 348 346 345 344 343 342 340 340 339 338 337 335 336 336 336 336 334 332 331 331 332 331 333 332 333 334 336 335 334 334 335 334 333 333 334 338 340 340 338 336 335 334 333 332 332 332 331 330 329 329 329 329 328 326 323 320
350 353 356 356 355 356 356 356 355 355 355 356 356 356 356 357 357 357 357 356 356 356 356 356 355 355 353 351 350 349 348 347 346 345 343 342 341 340 340 339 337 335 335 335 336 334 333 331 331 331 333 334 333 332 333 336 337 336 334 333 333 335 334 332 332 337 340 340 338 338 337 336 336 333 328 327 328 328 328 326 326 325 324 321 319
349 350 353 356 356 355 355 356 356 356 355 355 356 357 357 357 357 357 357 356 356 355 355 356 356 355 355 354 352 350 349 348 347 347 346 343 342 340 341 340 338 336 335 334 335 335 334 332 332 331 331 332 331 332 333 333 332 332 335 334 332 333 334 335 333 333 336 338 337 338 338 337 335 334 330 329 329 329 327 327 328 329 326 322 320
350 350 351 354 355 355 354 355 356 357 356 355 355 356 357 356 357 356 357 356 356 355 354 355 355 355 355 355 354 352 351 347 342 343 343 341 345 341 341 341 340 338 336 335 335 335 334 333 332 332 331 331 332 332 331 331 331 331 333 334 333 333 334 334 336 336 336 335 336 336 336 337 336 335 334 332 331 331 329 330 331 332 328 323 322
350 350 350 351 353 354 354 353 354 356 357 357 348 336 341 356 356 357 357 356 356 355 354 353 353 354 355 355 356 348 342 340 338 336 336 335 336 343 344 341 341 339 337 336 334 335 335 333 333 332 331 331 333 333 333 333 334 333 331 332 331 332 328 331 333 335 338 337 335 334 336 338 336 335 333 333 333 338 332 329 329 329 329 326 324
350 350 350 350 351 352 353 353 353 353 355 356 339 333 333 337 352 356 356 355 356 355 355 353 352 353 354 355 355 352 344 340 341 334 335 334 333 335 337 338 338 341 338 337 336 336 335 334 334 333 332 332 333 335 334 335 334 333 332 332 332 331 329 328 327 332 339 338 336 334 335 337 336 333 333 333 333 333 334 331 329 329 327 326 326
350 350 350 350 351 352 353 353 353 353 353 340 334 332 332 331 337 356 356 356 356 355 355 354 354 353 353 353 354 355 354 351 350 346 337 332 331 332 333 334 334 335 337 339 338 336 335 334 334 334 333 332 333 334 335 335 334 334 334 332 332 331 330 329 329 328 332 341 336 334 334 336 337 335 333 334 333 333 335 332 329 326 325 325 325
349 349 349 350 350 351 352 352 352 354 354 339 332 330 331 330 330 341 356 356 355 355 355 355 354 353 353 352 353 354 355 344 347 350 348 344 331 328 330 332 333 332 332 333 335 341 339 336 335 335 335 335 333 334 336 336 337 334 334 332 332 332 332 331 331 332 332 340 337 333 332 335 335 336 334 335 332 331 332 331 329 327 325 325 325
348 349 349 349 350 349 350 351 352 353 354 340 330 327 328 328 329 333 354 356 355 355 355 355 355 354 353 352 351 352 354 354 352 351 350 349 346 341 337 337 339 339 330 329 330 331 339 339 337 335 337 337 335 336 338 338 336 335 334 333 333 332 332 332 334 334 333 342 337 334 331 334 334 334 333 334 331 330 329 329 328 327 325 324 323
347 348 349 349 349 350 350 351 351 352 354 337 329 326 325 325 327 329 351 356 356 355 355 355 355 355 354 354 353 352 352 353 354 351 351 350 349 347 343 341 340 342 343 341 338 338 338 340 339 338 339 339 339 338 338 338 338 338 338 336 336 335 335 336 335 332 333 341 339 335 329 333 332 332 333 333 330 329 329 326 326 326 325 323 323
349 349 350 351 350 350 350 350 350 350 353 333 327 324 323 323 325 338 349 353 355 355 355 355 355 356 355 355 353 353 353 352 345 334 340 351 350 348 346 344 343 343 343 338 335 336 340 341 341 341 340 340 336 340 340 338 339 339 340 340 337 335 333 332 331 334 334 337 340 336 331 330 331 332 332 332 328 327 327 326 324 325 324 323 323
348 348 349 350 352 352 352 352 350 350 352 338 325 322 321 321 324 343 348 351 354 355 355 355 355 355 356 356 355 354 353 353 342 332 330 336 350 349 347 346 345 344 344 345 334 329 329 329 329 331 331 331 329 327 327 330 336 338 338 335 334 335 332 330 330 331 332 335 338 338 334 331 329 331 330 327 325 325 324 323 323 323 324 323 322
348 349 349 350 352 353 353 353 353 352 352 342 322 319 319 319 327 345 348 350 352 353 354 355 356 355 355 348 355 355 354 354 337 329 329 333 347 349 349 347 346 344 345 346 346 342 328 326 327 328 329 329 329 328 327 327 328 332 337 333 335 335 332 332 329 331 333 334 336 339 333 332 329 329 329 321 322 321 323 322 322 322 323 321 319
350 350 350 349 350 351 353 354 348 351 354 344 317 319 317 318 328 347 350 351 351 352 353 354 355 355 355 350 344 344 349 347 333 328 326 331 347 350 350 349 347 346 347 346 345 345 343 338 337 335 336 335 336 335 336 327 329 340 339 338 337 335 333 332 332 331 329 332 336 339 333 331 325 325 326 316 316 317 319 321 322 320 321 323 321
Wind_Speed
4 4 4 4 3 4 3 3 3 3 3 2 3 2 1 1 0 2 2 3 1 3 3 3 2 3 4 6 5 5 4 5 5 4 4 3 3 6 11 11 10 10 10 10 10 10 9 9 8 8 8 8 8 8 8 8 8 8 7 7 6 5 5 5 4 4 3 3 3 3 2 2 1 1 1 2 2 3 4 4 5 4 4 5 5
4 4 5 4 4 3 3 3 3 3 3 4 3 3 3 1 0 2 2 2 2 3 2 2 1 2 3 3 4 5 4 5 5 5 5 4 4 4 11 10 9 9 9 9 9 9 9 9 9 8 8 8 8 8 8 8 8 7 7 7 6 5 5 5 3 3 3 3 2 2 3 3 2 2 2 3 3 4 4 5 5 6 6 5 5
4 5 4 5 4 4 4 3 3 3 3 3 2 2 2 2 2 1 2 3 3 3 0 2 3 3 3 3 6 6 5 5 4 5 5 4 4 3 5 10 9 9 9 9 8 9 9 9 10 10 9 8 8 8 8 8 8 8 7 7 6 6 5 5 4 4 4 4 4 2 2 2 3 3 3 4 4 5 5 5 5 6 7 6 6
4 4 5 4 4 4 4 4 4 3 3 3 3 3 3 2 1 2 2 1 1 3 2 2 3 4 2 1 6 6 6 5 5 5 5 4 5 4 4 5 9 9 9 8 8 8 8 8 9 8 9 9 9 9 9 8 8 8 8 7 7 6 6 6 6 6 5 5 5 5 5 4 4 4 4 5 5 5 5 5 6 6 6 6 6
5 5 5 5 4 4 4 4 4 4 3 2 2 1 1 0 1 1 1 1 1 2 1 1 3 3 1 2 5 5 5 5 5 5 5 4 4 4 3 3 3 9 9 8 9 9 9 8 9 9 9 9 10 10 9 8 8 8 8 8 7 7 7 7 7 7 6 6 6 5 6 6 5 5 5 4 4 5 5 5 6 6 6 6 6
5 5 4 5 4 4 4 4 3 3 3 2 2 1 1 1 2 2 3 1 2 1 1 2 2 3 2 4 6 6 6 5 5 5 4 4 4 3 3 3 4 3 4 9 9 9 9 9 9 9 9 9 10 10 10 9 9 8 8 8 8 7 7 7 7 7 7 7 6 6 6 5 5 5 5 5 4 4 5 6 6 6 6 7 6
5 6 5 5 5 5 4 5 4 3 3 3 3 1 1 2 2 3 2 1 3 2 1 1 2 2 2 4 6 6 6 5 5 5 4 4 4 3 3 3 4 4 4 4 7 8 8 10 10 9 9 9 10 10 10 10 10 9 8 8 8 8 7 6 6 6 6 6 6 5 6 5 5 5 4 5 4 4 6 6 7 8 8 8 9
6 5 5 5 5 5 5 4 5 4 4 3 2 2 2 2 3 3 1 3 2 3 2 2 3 1 4 5 6 8 7 5 5 5 5 5 4 4 4 4 4 4 5 4 3 4 8 9 10 10 10 10 10 10 10 10 10 10 9 9 8 8 7 6 6 5 6 7 6 6 5 4 4 4 6 6 6 7 7 7 8 8 8 9 8
6 6 6 5 5 5 4 4 4 5 5 4 4 4 3 3 2 2 2 1 2 3 3 2 2 3 4 5 6 6 7 7 6 5 5 5 4 4 4 3 4 7 3 3 3 2 6 8 10 10 10 10 9 10 10 10 10 10 10 10 9 8 7 6 5 5 5 4 3 3 4 3 4 4 4 5 6 6 7 8 8 9 8 7 8
6 6 6 5 5 5 4 5 5 5 4 4 4 3 3 3 2 0 2 1 1 2 3 1 2 3 5 6 7 6 6 6 6 5 6 6 5 5 5 4 4 3 4 3 3 3 3 6 9 8 9 9 8 8 9 9 10 9 9 9 9 9 8 7 6 6 6 6 5 4 5 5 5 5 5 6 6 7 7 7 7 6 7 7 6
5 6 6 5 5 4 5 4 5 5 4 4 3 2 2 1 2 0 1 1 0 2 3 2 2 3 5 5 7 5 4 4 5 5 5 6 6 6 5 5 5 4 5 5 4 3 2 2 2 2 4 8 8 9 9 8 9 8 8 8 8 8 8 7 7 7 7 6 4 4 5 4 5 5 5 5 6 6 6 6 6 6 6 6 6
5 5 6 5 5 5 4 4 4 4 5 4 3 3 4 3 1 0 1 1 2 2 0 4 3 4 4 4 3 5 4 4 4 5 4 5 5 5 5 4 4 4 4 4 4 4 4 2 2 2 1 3 8 8 9 8 7 6 7 8 8 8 8 7 7 6 5 5 4 5 5 4 5 5 5 5 5 5 5 5 5 5 5 5 5
6 6 6 5 5 5 4 4 4 4 5 5 4 4 3 3 2 1 1 0 1 0 1 3 5 3 3 5 4 3 4 3 5 5 5 5 5 5 4 5 4 4 4 3 3 3 3 3 2 2 1 0 2 6 6 7 7 7 7 8 8 8 6 7 7 5 5 7 5 4 4 4 5 4 4 5 5 3 3 2 3 4 5 6 6
6 6 6 6 6 5 5 5 5 5 4 3 3 3 2 2 2 1 0 1 0 2 4 4 1 3 3 1 3 3 3 5 6 4 5 4 4 4 4 5 5 4 4 4 4 4 4 4 4 3 2 3 2 2 2 3 5 7 8 8 8 8 8 8 6 6 6 5 5 5 5 3 4 5 4 2 1 1 1 3 4 5 6 6 6
7 7 6 5 6 6 6 5 5 5 4 3 3 3 3 3 3 3 1 0 0 1 4 3 3 2 2 4 1 3 0 1 2 5 6 5 4 5 5 4 5 4 4 4 4 5 5 4 4 4 4 4 4 3 2 4 5 8 7 7 7 7 7 7 6 6 6 5 4 4 3 4 4 2 2 2 1 1 3 3 3 3 4 4 4
8 7 6 6 6 6 5 5 6 5 5 5 3 3 3 3 2 2 2 1 1 1 2 2 4 7 3 2 3 4 2 1 2 2 5 7 6 5 5 4 4 3 3 5 5 4 4 3 4 4 4 4 4 4 4 4 6 8 8 7 4 4 6 6 6 5 6 6 5 3 4 4 3 2 2 1 1 1 0 1 1 1 2 2 2
8 8 7 7 6 6 6 6 6 5 5 5 5 5 4 4 4 3 3 3 2 2 1 1 4 3 5 3 2 2 2 3 1 1 3 5 6 6 5 5 5 5 5 4 3 4 4 3 3 3 3 3 4 4 4 3 3 3 5 7 5 4 5 6 6 6 7 5 5 5 5 4 3 3 2 2 2 2 2 2 2 2 2 2 2
8 9 8 7 6 6 6 6 5 5 5 5 5 4 4 4 5 5 4 3 4 2 1 0 2 3 4 3 4 3 3 2 3 2 2 1 5 5 6 6 4 5 5 4 5 5 4 5 4 4 4 4 4 3 4 4 3 3 2 3 7 6 7 7 7 7 6 6 6 6 6 5 5 4 4 3 4 3 3 2 2 2 2 2 2
8 8 8 7 7 6 6 6 6 6 5 5 5 6 5 5 4 4 5 4 3 3 4 3 1 2 1 1 2 1 4 5 3 2 2 3 2 3 3 3 5 6 6 6 6 5 4 4 5 4 4 4 4 4 4 5 5 5 6 7 7 8 7 7 6 7 7 7 7 7 7 6 6 5 5 5 4 4 4 3 3 4 4 4 4
9 8 8 7 7 7 7 6 6 6 6 6 6 6 5 4 4 5 3 4 5 5 4 3 6 3 0 0 1 1 2 1 5 6 5 5 2 0 0 1 3 5 6 7 6 6 6 5 5 5 5 5 4 5 5 5 4 4 5 9 9 9 8 7 7 8 8 8 8 8 7 7 7 6 5 5 5 5 5 5 5 5 5 5 5
8 9 8 8 7 7 7 6 6 6 6 6 5 5 6 6 5 5 5 4 4 4 5 6 4 5 2 0 1 1 0 1 3 4 4 4 2 4 3 1 1 3 4 4 5 5 7 7 6 6 6 6 5 5 5 5 5 5 6 10 10 9 8 8 8 10 9 9 9 8 8 8 7 7 7 7 7 7 7 7 6 6 6 7 7
7 8 8 8 8 7 7 7 7 7 6 6 5 5 5 6 6 6 5 5 4 5 6 6 6 4 5 5 3 0 1 2 1 3 2 3 7 7 6 8 6 6 4 5 5 6 6 5 6 6 6 6 6 6 5 5 5 5 7 13 12 11 10 8 8 11 10 9 9 9 9 9 8 8 8 8 8 8 8 7 7 7 8 8 8
7 7 8 8 7 7 7 7 7 6 6 6 6 6 6 6 6 5 5 6 5 5 4 4 5 4 4 6 6 5 5 3 5 3 3 2 3 3 2 6 9 5 7 6 6 6 5 5 6 7 7 6 6 6 6 6 6 7 12 13 13 12 11 10 9 11 10 8 10 10 10 10 9 9 9 8 8 9 9 8 8 8 8 8 9
7 7 8 8 8 7 7 7 7 7 7 7 6 6 6 5 5 6 6 5 5 5 4 4 4 4 5 5 6 5 4 4 5 5 6 4 6 5 5 3 1 3 2 4 4 5 6 6 6 7 7 7 7 7 7 7 7 13 10 13 13 13 12 11 12 11 11 10 9 10 11 10 10 10 9 8 7 7 7 8 8 9 10 9 9
8 8 8 10 8 8 8 8 8 8 7 7 6 6 6 6 6 6 6 6 6 6 6 5 6 5 6 5 4 5 6 4 5 5 3 4 6 4 4 3 4 4 2 5 5 5 5 7 7 6 7 7 7 7 7 7 7 10 13 10 15 14 14 14 13 13 13 12 12 11 10 9 8 7 5 4 6 7 8 9 9 10 9 9 8
10 10 9 9 8 9 8 8 7 7 7 7 7 6 6 6 6 6 6 6 5 6 6 5 4 5 3 5 4 5 5 4 5 5 5 4 3 4 4 0 1 4 0 4 2 4 5 6 6 6 6 6 7 7 7 8 7 12 15 9 12 15 14 14 14 14 15 14 14 13 13 12 10 9 7 7 8 8 8 8 9 9 9 9 8
10 9 8 9 9 8 9 9 8 8 7 7 7 6 6 6 6 7 6 5 6 6 5 5 5 5 4 5 5 4 5 5 3 5 5 6 6 5 6 3 0 1 2 3 3 6 7 6 7 7 7 7 7 7 8 8 9 13 15 9 7 14 15 15 14 15 15 15 15 15 14 13 11 9 8 8 8 8 8 8 8 9 9 8 8
8 7 9 9 9 9 9 9 9 8 8 8 7 7 7 7 6 6 7 5 6 7 6 6 6 5 5 4 4 6 5 5 5 5 6 6 6 5 6 6 6 3 1 3 4 7 5 4 4 7 8 8 7 8 9 10 8 12 15 8 7 8 14 15 15 15 15 15 15 14 14 12 11 9 9 10 10 9 9 9 9 9 8 8 7
8 8 9 9 9 9 9 9 9 9 8 8 8 8 7 7 8 7 8 7 7 8 7 7 6 6 5 6 7 6 6 5 4 4 5 4 5 6 6 8 7 6 5 5 6 7 6 7 5 7 9 9 8 7 7 8 9 10 8 8 8 7 12 16 15 15 15 15 14 14 13 12 11 10 10 11 11 11 10 10 9 9 9 7 6
9 8 9 10 9 10 9 9 9 9 9 9 8 8 8 8 8 8 8 7 7 6 7 7 7 6 6 6 5 6 6 5 6 5 4 6 6 6 7 6 7 8 7 8 8 6 5 5 6 5 6 9 8 7 7 9 11 12 8 8 8 8 12 15 16 15 15 15 14 13 13 13 12 11 11 11 11 11 10 10 10 9 9 7 7
9 9 9 10 9 9 9 9 9 9 9 9 9 8 8 8 8 8 8 8 8 8 7 7 7 7 7 8 6 6 5 6 6 5 4 5 6 6 7 6 7 7 8 6 5 6 6 7 7 4 7 10 9 9 8 8 10 12 8 8 9 12 15 12 16 16 16 15 14 14 13 13 13 12 12 11 10 10 10 10 10 9 9 8 8
10 10 10 10 10 11 10 10 10 9 9 9 9 9 9 9 8 8 8 8 9 9 8 7 6 7 8 8 8 8 7 5 6 6 6 6 6 7 7 7 7 6 7 7 8 9 5 7 6 6 6 8 9 9 9 7 8 13 8 8 9 12 10 8 13 16 16 16 15 14 14 14 14 13 12 12 11 11 10 10 10 9 9 9 8
9 10 11 11 11 11 11 10 10 10 10 10 9 9 9 9 9 9 8 9 10 9 8 9 8 8 9 9 9 8 7 7 7 7 6 6 6 7 7 7 7 6 7 7 8 8 5 3 4 5 6 5 6 8 9 8 7 7 7 8 8 8 8 8 8 12 16 16 16 15 14 14 14 14 13 12 12 11 11 11 10 10 9 9 9
10 11 12 11 11 11 11 11 11 11 11 11 10 9 10 10 10 8 8 9 10 9 8 10 10 8 8 10 10 9 8 9 8 8 8 7 6 6 7 7 7 8 8 8 8 7 9 3 3 3 2 4 7 6 10 9 8 5 7 7 6 7 8 7 7 8 14 16 16 16 15 14 14 14 14 14 13 13 12 12 11 11 10 10 9
11 11 12 11 11 11 11 11 11 11 12 11 11 10 11 11 12 10 10 10 11 11 11 12 11 10 9 10 11 10 7 8 9 9 7 7 6 7 8 6 8 8 8 8 7 7 7 7 3 3 5 4 8 7 7 7 7 7 8 7 7 6 6 7 7 7 11 15 16 16 15 15 15 14 14 14 14 14 13 13 12 12 12 11 10
11 11 11 12 11 11 12 12 12 12 12 11 11 12 12 12 12 12 11 11 11 12 13 12 11 11 12 11 12 11 10 10 10 9 8 7 8 8 7 7 7 8 8 7 8 7 6 7 5 7 5 6 7 4 5 5 6 6 7 7 5 6 7 6 7 7 9 14 16 16 15 15 15 14 14 14 14 14 14 14 13 12 12 12 11
11 11 10 11 12 12 12 13 13 13 13 13 13 13 12 12 13 12 12 12 12 13 13 12 11 12 12 13 13 11 10 11 10 9 8 9 8 7 8 7 7 7 5 7 7 6 6 8 6 5 4 5 5 5 5 7 5 5 4 6 7 8 7 7 6 7 9 13 15 16 16 16 15 15 14 15 15 15 15 14 14 14 14 13 12
12 12 12 11 12 13 14 14 14 14 13 13 13 14 14 13 13 13 12 12 13 12 12 12 12 12 13 14 13 11 11 12 12 11 10 11 9 9 9 8 7 5 6 6 6 6 7 8 7 6 4 6 5 6 6 7 7 7 6 6 5 5 6 6 7 6 5 5 5 8 11 13 14 15 15 15 15 15 15 15 14 15 14 13 13
13 13 13 13 12 13 14 14 14 14 13 13 13 13 13 13 13 13 13 13 13 12 12 13 12 12 12 12 12 12 12 13 13 13 12 11 10 11 11 10 7 6 7 7 6 6 7 7 6 7 6 6 6 8 6 6 7 8 9 7 8 8 6 8 8 6 5 7 8 12 11 11 12 11 13 16 16 16 15 15 14 14 14 12 13
14 14 14 14 13 13 14 13 14 13 12 12 13 13 13 14 13 13 13 13 13 13 13 13 13 13 13 13 12 12 13 13 14 13 12 12 10 11 10 9 8 8 8 7 6 7 8 7 8 8 7 6 5 4 1 4 6 7 8 9 11 9 9 8 8 8 6 6 7 7 8 9 9 10 10 11 13 13 14 13 14 12 13 11 12
13 14 14 14 14 14 14 13 13 12 12 13 12 13 13 14 14 14 14 14 13 13 13 13 13 13 12 12 13 13 14 16 18 16 15 14 11 12 11 10 11 10 9 7 8 8 9 8 9 6 6 7 7 7 7 8 12 15 9 7 9 8 7 6 8 7 6 7 7 7 7 7 7 7 7 7 8 11 12 14 10 13 13 12 12
14 14 14 14 14 15 14 14 13 12 12 11 15 20 18 14 14 12 12 13 13 13 13 13 12 13 13 12 13 18 18 18 18 18 19 18 18 15 12 11 12 11 11 10 10 10 10 11 11 10 9 11 11 11 12 12 10 6 5 8 11 9 3 6 6 7 7 7 7 9 9 6 7 8 7 8 7 7 6 7 8 9 11 14 14
15 15 14 15 15 15 15 14 15 13 13 12 19 19 20 21 15 13 13 13 12 12 12 12 13 13 12 13 12 13 15 16 17 20 20 21 20 21 20 17 15 15 12 13 12 12 12 12 12 10 12 13 13 11 12 11 8 11 11 8 10 7 9 9 11 5 6 10 9 9 10 7 7 9 8 8 7 6 6 8 12 14 14 13 14
14 13 15 15 15 15 13 14 15 15 14 16 19 19 20 21 19 15 12 11 11 12 12 13 12 11 12 12 11 10 11 14 14 15 18 21 21 22 22 21 20 20 19 16 14 12 13 13 12 13 13 14 14 12 12 11 12 9 10 9 11 11 11 11 10 11 5 11 10 9 11 6 7 9 8 9 7 7 9 11 14 14 14 14 14
12 14 15 15 16 15 15 15 16 15 14 18 19 20 21 21 22 18 12 12 12 12 12 13 13 12 11 10 11 10 11 16 15 14 13 15 19 22 22 22 21 21 21 23 21 17 13 14 14 14 14 14 14 14 13 14 10 11 10 11 11 10 11 12 13 11 7 9 9 9 11 8 7 8 9 9 7 7 8 12 15 15 15 15 15
14 15 15 16 15 15 15 16 15 14 15 17 20 20 20 21 21 19 15 14 12 12 13 13 12 12 12 11 11 11 11 11 12 14 14 14 13 14 14 14 15 19 21 24 24 23 18 14 14 16 15 13 15 15 14 11 11 14 12 14 12 11 11 15 17 14 4 8 11 8 7 9 7 7 10 9 7 7 7 10 15 15 15 15 15
15 15 15 15 15 15 16 15 14 14 14 19 19 20 20 21 21 18 14 13 12 12 12 12 13 13 12 12 12 13 13 12 12 13 14 14 13 13 14 15 16 17 17 18 17 15 15 15 15 17 16 14 16 16 11 10 15 14 14 16 16 16 15 13 8 4 4 8 8 7 11 7 5 8 10 8 6 7 6 9 15 15 15 15 16
13 12 12 13 14 15 15 14 14 15 14 17 18 19 21 19 18 12 12 14 14 13 12 12 12 12 12 13 13 13 14 14 15 18 17 14 13 15 15 15 15 16 18 19 19 19 18 17 17 18 17 16 16 14 12 11 11 11 10 8 5 5 7 9 12 9 9 6 9 10 8 7 5 9 8 6 5 7 7 6 11 15 15 16 16
14 14 15 14 13 13 14 14 15 15 14 13 16 18 18 18 13 11 12 12 13 14 14 12 12 12 12 13 13 13 14 15 16 17 18 17 15 16 15 15 15 15 18 15 15 20 23 24 24 24 23 20 18 18 17 19 15 12 10 10 12 9 10 13 12 9 11 6 8 11 9 9 6 8 7 4 7 8 7 7 6 10 15 16 17
15 15 14 13 13 13 14 15 15 14 13 11 15 16 18 19 17 13 12 12 14 14 13 13 12 11 13 18 17 15 15 15 16 18 19 17 16 16 15 15 16 18 19 11 8 13 20 22 24 24 22 21 20 19 18 19 20 16 13 17 14 10 14 13 13 11 9 8 10 9 7 12 5 6 6 1 1 4 5 5 6 7 12 13 17
15 13 12 13 13 12 13 14 15 15 12 10 15 17 19 21 18 12 12 12 13 13 12 13 12 12 12 14 20 19 18 17 19 18 20 17 15 16 15 15 18 20 18 6 12 13 10 11 15 16 17 20 18 16 16 20 21 20 18 18 12 13 14 13 13 9 9 12 9 12 12 9 8 7 8 3 5 3 2 5 6 6 7 7 8
Wind_Direction
169 169 156 151 153 159 155 160 149 140 135 153 139 137 145 149 87 340 298 243 250 269 262 266 203 184 197 215 192 173 163 137 138 142 135 166 176 175 172 177 180 174 172 177 174 172 173 176 172 165 161 158 155 150 146 143 145 145 147 150 153 150 146 154 162 163 162 169 161 179 182 193 197 202 232 263 300 310 316 318 317 324 329 332 329
167 165 156 154 159 150 146 172 153 166 163 175 175 150 165 144 49 313 290 249 200 259 259 267 247 203 169 171 162 156 156 144 148 148 141 160 164 180 175 181 185 180 177 181 176 177 176 179 179 174 170 169 166 161 158 156 154 153 154 155 156 162 164 158 164 178 177 193 179 228 195 210 225 249 263 281 291 296 304 315 329 318 318 320 322
164 166 170 153 156 156 175 166 168 191 187 192 180 154 170 146 199 238 234 228 234 242 284 326 321 333 68 127 141 142 155 150 138 139 140 152 158 170 183 182 188 186 183 184 183 185 183 183 182 179 178 177 178 176 172 170 167 166 166 168 171 175 179 170 186 199 195 203 215 238 257 241 246 272 289 297 295 299 302 303 295 299 308 314 319
164 167 172 159 162 167 180 175 198 201 200 177 174 173 170 169 225 245 237 221 289 309 345 355 327 304 58 202 151 156 154 144 148 142 140 168 167 165 176 182 189 189 188 186 189 192 193 179 193 181 189 182 185 186 185 182 180 180 179 181 184 184 189 188 196 204 204 210 220 223 231 244 247 244 255 265 278 288 298 302 298 303 311 315 316
176 175 174 165 166 168 185 194 197 185 193 187 176 164 124 116 264 183 215 262 251 288 360 318 282 314 68 180 148 147 147 140 135 137 157 170 168 166 175 175 182 186 186 187 189 195 194 186 192 183 192 193 194 193 193 192 191 193 192 192 195 197 200 203 205 209 209 208 213 222 224 229 235 236 256 275 287 289 297 303 304 303 307 311 313
168 177 170 161 170 176 186 197 196 178 174 171 175 165 140 154 232 182 223 208 252 287 360 334 306 285 17 157 137 152 145 144 142 142 156 164 162 164 174 163 162 168 178 188 191 193 192 190 195 187 191 193 198 198 199 199 199 199 202 202 205 208 211 214 218 220 219 218 220 225 232 238 239 247 250 257 271 291 299 304 305 308 308 308 321
175 170 173 169 169 184 192 192 176 172 174 189 175 157 165 208 194 202 237 269 287 301 348 290 283 242 104 130 136 137 144 142 137 153 153 153 155 177 179 174 165 169 174 174 191 194 192 193 197 195 196 198 198 198 199 205 203 203 206 206 209 214 217 226 235 233 232 234 237 240 243 244 258 261 269 271 285 291 299 306 318 316 325 327 323
174 166 167 177 176 187 196 183 171 167 182 192 174 186 206 194 203 160 174 262 270 296 300 288 252 16 81 142 146 146 142 141 157 150 154 151 173 180 181 180 176 174 181 173 178 185 192 199 201 202 201 204 204 203 204 208 207 209 211 214 216 218 220 224 233 243 247 240 242 248 249 263 263 284 302 310 316 318 321 331 311 319 326 321 323
171 168 165 176 178 187 188 180 171 169 176 176 186 182 174 169 190 188 149 220 259 259 294 257 301 43 81 123 140 140 146 162 164 160 145 155 173 180 177 183 186 187 164 173 162 164 186 206 208 206 207 208 211 211 212 214 213 215 215 217 216 219 209 215 221 236 244 244 230 245 264 268 302 308 294 297 301 304 310 319 324 323 321 322 322
169 166 170 173 174 180 172 171 167 165 157 154 176 163 169 162 163 201 172 155 225 267 264 302 55 85 85 122 140 144 157 164 166 152 153 168 180 180 180 174 184 183 167 172 173 164 180 209 215 215 212 214 214 217 220 220 221 219 222 223 220 222 212 216 230 232 239 243 245 262 270 282 278 291 304 307 316 318 322 322 319 316 317 319 314
168 165 162 169 170 176 166 178 162 160 145 148 156 146 161 127 134 252 334 178 169 257 221 143 56 91 99 126 143 156 162 167 156 149 170 176 179 176 164 180 184 173 174 172 166 171 176 182 197 220 238 225 219 220 225 226 230 222 226 231 229 226 220 223 228 227 237 243 255 279 272 274 290 294 300 306 315 316 310 309 313 314 308 309 309
175 164 161 164 169 178 170 173 161 150 147 146 169 173 180 151 151 160 324 360 75 276 89 111 71 67 87 92 124 140 163 171 142 159 171 182 181 165 175 172 173 175 173 177 169 176 182 182 182 194 252 256 231 233 229 230 232 240 231 237 238 231 229 226 233 240 249 252 246 251 272 302 296 292 290 291 292 295 300 311 321 328 332 340 337
179 166 164 170 172 176 169 174 165 167 161 179 178 185 189 161 173 140 166 52 29 94 163 109 108 47 31 80 85 127 163 153 162 164 177 185 172 160 157 163 173 167 171 160 171 175 178 177 181 174 193 304 275 257 241 250 247 231 243 243 239 240 231 246 244 238 229 247 252 254 256 260 270 274 271 270 283 302 332 1 9 2 2 6 12
176 177 170 172 170 176 177 178 173 180 178 166 165 176 150 142 144 152 17 153 226 176 186 101 37 142 129 34 48 45 150 160 178 184 167 169 168 152 165 172 173 170 160 160 169 174 180 184 187 182 187 198 224 258 236 243 244 239 236 243 243 242 232 240 249 240 250 253 257 252 239 245 256 250 246 247 185 115 55 17 14 14 13 16 20
178 178 176 177 175 173 185 180 181 168 159 159 157 168 167 180 172 165 183 347 266 233 202 135 160 116 116 88 63 102 226 7 240 165 164 176 171 166 176 180 173 165 161 163 177 181 185 187 189 190 191 194 204 211 208 210 216 231 227 241 241 240 238 236 233 240 239 241 244 239 238 237 230 215 166 159 148 42 17 21 12 9 5 10 11
183 181 181 175 175 181 178 183 186 174 169 162 172 191 176 184 198 196 131 106 315 247 211 172 127 127 119 152 189 122 78 298 220 129 160 178 175 179 178 180 168 148 153 180 190 189 193 180 192 195 194 191 193 202 204 212 231 232 225 222 218 241 231 222 224 219 218 218 218 212 216 211 203 200 187 172 156 47 329 316 321 319 329 339 2
184 185 185 178 179 179 179 184 183 181 167 167 178 196 197 188 189 193 172 160 218 275 233 103 145 162 133 93 58 73 205 230 140 261 89 164 189 179 185 176 167 169 180 190 193 194 180 186 196 195 195 190 199 201 207 216 230 242 226 222 198 210 224 215 203 204 205 189 193 197 203 209 207 211 206 194 206 213 221 242 254 274 302 325 341
185 185 187 180 179 179 178 180 186 179 179 178 183 183 197 194 200 194 192 186 167 172 242 345 196 180 156 164 165 170 186 228 102 217 51 133 185 188 186 178 166 175 183 182 192 194 182 189 189 196 185 193 201 199 202 211 219 218 160 227 204 211 212 210 203 205 193 197 196 196 197 202 206 211 212 220 217 228 235 242 256 270 280 291 299
186 185 185 186 178 175 179 184 185 184 184 167 179 193 195 199 195 188 200 174 125 170 176 194 21 297 152 119 114 119 140 130 187 104 93 3 111 195 207 182 181 180 185 193 195 188 198 188 189 188 189 191 190 193 194 203 203 185 190 206 202 209 224 202 206 205 201 199 196 197 197 201 207 216 214 227 238 236 244 248 245 254 257 265 274
182 185 186 183 181 180 179 182 183 187 180 184 187 195 190 203 192 201 189 178 168 167 195 184 159 228 110 150 71 135 151 125 143 161 156 140 193 309 40 216 205 205 194 189 190 195 195 193 185 186 192 199 185 190 195 197 191 188 198 201 198 210 197 183 199 207 207 201 197 199 205 206 209 218 220 228 242 254 257 256 258 260 263 275 283
184 183 186 184 184 185 181 182 185 188 187 189 185 186 191 190 201 198 194 198 180 181 148 199 177 196 138 306 68 59 14 207 132 109 140 129 185 180 177 108 191 250 229 211 201 198 198 188 185 188 191 192 188 195 196 195 193 191 199 196 195 196 191 195 205 212 211 207 203 204 210 214 219 229 234 244 253 263 267 268 272 275 278 282 284
189 187 186 187 186 185 185 189 193 190 191 193 183 188 197 196 198 204 195 187 201 167 179 187 196 192 176 170 163 94 67 65 100 88 57 113 164 194 176 167 188 232 207 212 205 207 198 181 185 192 195 194 191 192 193 201 197 191 203 197 198 200 198 201 207 211 211 213 213 216 220 228 238 243 248 252 259 264 270 274 276 277 279 280 283
186 190 189 187 189 188 189 194 194 194 193 192 192 190 197 198 202 204 199 187 190 184 186 180 193 180 182 168 175 170 171 171 193 180 140 138 99 173 189 189 188 193 221 205 206 209 196 187 186 197 196 192 198 192 192 202 200 203 199 195 196 199 201 205 207 212 214 218 225 229 233 238 241 247 254 261 265 269 276 284 287 290 293 296 297
191 187 192 191 188 192 191 186 193 194 198 196 194 192 195 196 196 198 205 199 185 180 179 181 192 196 189 190 182 176 172 162 191 163 153 179 155 180 176 196 245 224 234 194 225 211 205 199 200 194 198 194 195 198 194 194 205 205 203 197 195 198 203 205 209 213 218 221 226 234 238 243 248 252 259 273 285 291 292 293 293 293 294 295 298
196 194 196 191 190 189 191 190 193 197 197 193 196 189 190 194 198 201 201 200 193 185 186 192 190 183 198 202 182 175 193 200 146 167 160 135 156 158 222 154 173 201 220 163 199 217 215 215 199 203 193 199 196 196 197 195 201 209 201 205 197 200 202 205 208 213 218 222 223 227 234 241 247 254 263 266 269 275 281 286 289 292 294 297 301
191 198 194 190 192 196 195 198 194 193 195 195 194 190 186 193 197 202 205 207 193 186 193 191 188 205 180 174 196 198 211 188 174 144 147 133 152 176 174 26 118 193 223 180 210 158 246 238 225 217 206 201 201 195 195 199 201 208 202 199 206 203 205 209 210 213 217 220 223 225 228 231 234 239 242 245 256 265 270 276 282 288 293 298 302
193 196 187 191 194 194 197 198 197 196 193 196 198 193 189 191 195 203 205 202 200 189 192 185 193 205 208 198 195 200 215 201 186 181 157 176 173 175 151 138 7 78 172 208 212 212 205 212 204 214 217 205 205 202 199 200 203 203 204 199 209 209 207 209 212 216 220 223 224 226 229 231 232 234 238 243 251 256 261 266 273 279 286 292 298
193 184 192 191 192 195 196 200 198 196 195 195 197 195 191 191 196 194 204 194 198 198 199 189 200 198 198 217 194 218 212 210 203 191 184 178 181 164 157 154 157 224 272 205 220 240 224 210 227 218 212 211 211 207 206 201 205 207 205 200 207 215 213 212 214 218 222 226 229 231 231 234 234 231 231 239 245 245 247 253 259 267 274 281 292
189 188 191 195 193 192 195 200 199 198 197 197 196 198 193 194 194 196 201 196 193 202 199 194 205 194 195 199 204 214 222 212 212 204 202 200 195 182 176 171 168 162 194 217 228 215 239 207 200 229 208 213 213 211 208 210 209 202 206 205 208 214 217 216 217 221 224 227 231 232 233 234 233 228 230 233 236 239 242 245 251 257 263 271 280
188 189 191 194 195 194 194 198 199 197 200 199 198 199 194 198 198 198 200 190 197 202 204 201 203 194 197 198 206 216 226 210 217 215 202 202 205 196 194 189 170 180 184 190 236 210 229 233 212 216 206 211 209 213 209 213 213 203 204 206 209 215 219 216 219 223 227 229 231 232 233 233 232 229 227 229 230 234 238 245 249 252 256 262 267
189 189 190 194 194 197 197 199 197 199 200 201 201 202 197 201 201 201 200 193 197 203 206 200 205 193 200 202 204 217 217 218 222 219 215 201 211 207 201 179 192 183 177 177 212 260 187 217 231 215 189 205 202 207 212 217 214 207 204 207 212 216 216 218 219 223 226 228 230 231 232 232 231 229 225 224 227 230 236 240 244 245 247 250 252
192 189 191 193 194 195 199 199 199 200 199 203 200 203 202 208 202 200 199 196 200 204 205 205 202 201 204 210 207 211 215 208 221 221 213 211 206 206 202 189 194 192 172 175 199 237 216 210 220 228 204 197 198 200 214 216 216 210 204 208 212 215 217 221 222 223 225 226 227 229 229 229 230 229 225 221 221 225 229 235 237 239 239 237 237
187 189 193 195 195 197 196 199 200 200 202 203 201 201 203 209 208 202 194 195 202 207 203 206 208 200 207 215 219 217 210 212 216 220 221 214 208 212 209 194 193 186 177 186 205 239 282 236 223 227 216 184 206 208 207 209 210 213 208 211 211 212 215 217 221 223 223 224 225 226 226 228 229 228 224 220 218 219 222 230 233 233 231 226 224
190 192 194 195 196 196 198 201 203 204 203 204 202 200 204 207 210 205 201 195 202 207 203 208 207 208 204 211 221 221 209 216 218 219 215 215 211 214 215 203 199 192 194 180 212 205 236 277 259 275 252 195 213 202 202 203 216 205 205 211 216 214 214 214 220 228 223 222 223 224 226 227 229 227 223 220 218 217 222 227 228 225 222 216 212
198 198 197 196 195 196 200 202 204 207 205 204 204 202 205 206 208 209 205 201 202 204 205 210 208 206 207 211 217 216 212 217 223 225 215 216 209 214 219 209 206 199 193 197 179 212 220 241 219 225 220 209 211 212 214 214 208 197 205 212 211 215 222 215 217 224 223 219 220 221 224 227 229 227 222 221 219 218 219 220 221 218 215 212 204
200 204 201 200 198 198 202 204 205 209 206 205 205 206 206 206 208 209 208 207 208 209 209 209 208 205 210 213 217 211 210 216 223 224 223 217 213 215 220 219 215 207 196 198 203 194 205 218 241 209 216 200 234 242 214 213 206 208 212 219 215 217 217 217 217 220 223 219 220 221 223 227 230 228 224 222 220 218 215 215 215 212 210 208 198
204 202 203 200 201 202 205 207 207 208 208 205 206 208 209 209 209 209 210 211 212 214 214 212 208 207 210 214 216 207 205 214 223 224 221 222 222 217 218 219 217 217 205 202 211 202 195 212 232 228 210 217 225 222 197 198 229 234 237 228 215 217 221 222 221 224 225 219 219 221 223 228 230 229 226 224 220 217 214 213 211 208 208 205 192
207 205 204 201 201 204 208 209 209 209 207 206 207 209 209 209 210 211 211 212 214 215 217 218 214 211 212 215 216 206 205 210 219 220 219 220 220 222 223 221 218 209 213 215 209 213 214 222 211 235 227 211 231 229 207 203 202 219 238 245 257 242 226 236 233 229 218 214 220 230 233 235 236 234 230 227 222 217 214 213 210 206 206 201 190
207 207 207 206 206 206 209 210 211 209 208 207 208 210 211 210 211 212 213 214 216 216 219 218 217 216 217 219 217 211 208 212 216 216 216 218 215 221 222 222 215 205 213 213 205 212 220 226 234 227 225 230 209 224 227 204 214 206 210 222 245 236 225 221 235 231 224 226 225 219 220 217 221 224 226 225 222 218 214 215 215 208 208 201 192
209 209 209 207 209 209 210 210 212 210 208 209 210 210 210 211 211 213 213 214 216 218 220 220 218 218 218 218 219 217 215 214 215 218 213 217 215 220 220 217 212 206 213 210 204 212 221 226 226 230 229 224 241 255 222 167 219 247 223 207 221 227 228 224 225 222 223 219 229 228 233 234 238 235 233 228 228 224 218 219 220 215 211 201 199
210 212 211 209 209 213 214 212 213 211 210 212 211 209 210 213 212 215 214 214 215 218 220 222 220 220 220 219 220 219 219 219 217 218 216 213 210 217 219 210 214 212 215 206 208 210 224 224 234 228 228 232 228 209 214 206 207 217 209 200 230 230 223 227 240 224 214 209 226 225 227 210 220 227 214 220 221 214 220 215 218 217 214 200 202
210 211 212 211 212 213 213 213 213 213 214 215 214 210 208 209 212 215 215 217 217 217 219 222 224 222 222 221 222 220 220 220 219 220 222 219 218 216 214 206 211 211 214 211 208 213 217 222 228 220 223 232 226 217 219 221 221 222 193 197 222 225 178 235 261 237 206 205 218 229 234 210 208 228 215 223 224 203 208 201 212 208 209 203 202
209 210 210 211 213 214 213 213 213 215 216 217 212 209 210 210 209 213 215 218 217 219 220 220 223 224 225 224 227 222 220 222 223 220 221 221 221 223 223 214 210 206 210 213 216 212 214 221 225 218 223 230 230 221 224 225 213 212 215 204 217 205 207 214 237 250 197 193 213 224 238 213 190 220 224 225 219 206 205 209 209 209 208 200 199
211 210 212 213 215 214 214 215 216 217 219 217 211 208 209 210 209 212 215 218 218 219 221 222 225 225 226 226 226 226 221 220 221 223 224 224 223 223 224 222 218 215 212 208 212 215 215 221 223 221 219 225 229 219 223 216 220 214 218 212 211 210 212 217 230 229 218 183 201 211 236 210 187 216 227 226 213 203 206 205 205 205 204 198 196
211 213 214 214 216 215 214 216 218 218 221 215 211 208 208 208 209 211 217 216 217 221 221 223 225 225 225 225 227 226 230 222 220 223 222 227 229 227 226 227 226 220 221 222 218 215 210 218 223 227 219 222 227 228 217 216 208 215 214 219 220 217 217 222 230 232 224 186 187 211 231 220 180 211 224 229 204 197 204 203 201 199 201 198 194
214 216 215 217 217 216 217 218 220 221 221 217 208 208 207 207 207 204 220 218 219 222 222 222 224 226 225 224 226 230 229 224 221 221 224 226 226 228 231 232 232 232 230 227 224 224 221 220 222 230 229 213 226 228 220 205 199 214 211 220 217 218 219 225 227 226 203 159 187 192 233 229 194 202 223 226 195 203 202 199 202 204 199 195 191
214 215 215 217 219 218 220 220 222 224 226 217 207 205 207 206 205 199 217 222 226 225 225 223 224 226 226 225 226 231 230 227 223 217 221 224 225 227 227 228 231 233 231 231 227 225 226 229 228 233 234 222 229 233 224 207 212 216 211 216 210 212 219 235 265 248 198 193 184 167 230 225 171 204 226 212 193 207 203 205 205 204 198 194 192
216 218 221 221 222 221 221 222 224 230 230 216 206 204 205 206 198 199 214 222 227 229 227 224 224 226 226 225 227 231 232 231 226 214 214 219 224 229 229 229 232 235 237 232 224 221 225 227 230 233 234 229 227 229 224 215 218 223 231 240 240 226 230 237 236 228 229 200 194 193 228 236 180 202 224 205 187 210 210 210 212 207 200 195 192
210 213 217 218 220 220 221 221 223 230 233 216 202 200 201 198 187 207 213 222 228 231 231 226 227 225 225 225 226 232 233 234 227 213 213 209 226 228 230 232 233 236 241 235 224 226 228 232 234 237 240 239 234 230 224 216 212 208 216 224 225 201 218 232 237 228 236 185 209 206 217 238 194 198 216 204 197 210 207 214 210 210 203 197 194
211 214 214 218 219 220 219 221 220 227 230 211 191 191 190 189 191 203 212 218 227 230 233 231 230 229 227 224 225 230 233 235 225 215 210 203 223 229 231 235 238 240 244 228 227 231 229 234 239 242 244 245 242 238 229 219 214 204 205 223 215 197 223 223 233 226 236 210 213 188 204 232 170 188 194 254 205 244 212 208 200 206 206 202 198
213 213 212 216 219 220 220 221 219 221 227 208 183 182 187 189 194 208 209 217 225 228 229 233 231 232 232 227 226 229 233 233 225 217 211 203 222 228 229 233 240 243 244 194 226 234 230 226 238 239 245 244 242 240 237 227 218 211 215 224 212 207 220 220 224 229 245 240 199 169 203 221 168 201 166 135 225 261 212 199 197 197 192 195 204